Lapse_Rate
7.5 7.9 7.9 8.0 7.9 8.0 8.2 8.1 8.1 7.6 7.2 7.2 6.9 7.0 7.3 7.5 7.3 7.5 7.3 7.1 7.2 7.3 7.2 8.0 7.9 7.6 7.7 7.1 7.1 6.8 6.8 6.7 7.3 7.2 7.1 7.3 7.5 7.7 8.2 8.4 8.6 8.1 7.9 7.7 7.8 7.7 7.5 8.1 7.9 7.7 8.0 7.2 7.2 7.0
7.4 7.8 8.0 8.0 8.0 8.0 8.2 8.2 8.2 8.0 7.2 7.2 6.8 6.5 7.2 7.2 7.2 7.2 7.3 7.3 7.3 7.4 7.3 7.5 7.6 7.8 7.5 7.5 7.4 7.7 7.5 7.3 7.2 7.5 7.2 7.7 7.7 8.2 8.1 8.3 8.5 8.4 8.6 8.1 8.3 8.0 7.6 7.5 7.7 7.5 7.1 7.2 7.1 7.1
7.4 7.8 7.9 7.9 7.8 7.9 8.1 8.2 8.2 8.1 7.2 7.3 6.7 6.9 6.9 7.1 7.2 7.1 7.2 7.4 7.4 7.1 7.2 7.6 7.6 7.8 7.9 7.3 7.6 7.6 7.3 7.6 7.2 7.1 7.2 7.4 7.6 8.1 8.1 8.2 8.5 8.4 8.6 8.6 8.4 7.8 7.9 7.7 7.5 7.2 7.1 7.3 7.1 7.1
7.5 7.8 7.8 7.6 7.6 7.6 7.9 7.8 8.0 8.0 7.4 7.3 7.5 6.8 7.1 7.3 7.4 7.2 7.4 7.3 7.4 7.5 7.4 7.6 7.6 7.5 7.5 7.4 7.4 7.6 7.4 7.4 7.5 7.3 7.3 7.4 7.4 7.7 7.7 7.8 7.5 7.8 7.5 7.8 7.6 7.9 8.0 7.8 7.6 7.1 7.2 7.5 7.2 6.9
7.7 7.7 7.3 7.1 7.4 7.1 7.5 7.4 7.6 7.7 7.5 7.3 7.4 7.5 7.4 7.5 7.2 7.3 7.5 7.6 7.4 7.5 7.6 7.3 7.5 7.4 7.5 7.5 7.5 7.5 7.5 7.3 7.4 7.1 7.2 7.2 7.2 7.3 7.3 7.2 7.1 7.4 7.5 7.5 7.4 7.7 7.6 7.5 7.4 7.2 7.1 7.3 7.3 7.0
7.4 7.1 7.0 6.9 7.1 7.2 7.4 7.6 7.4 7.4 7.1 7.2 7.2 7.6 7.5 7.4 7.5 7.4 7.5 7.6 7.5 7.4 7.4 7.6 7.5 7.6 7.6 7.6 7.7 7.8 7.8 7.7 7.6 7.4 7.1 7.1 7.0 7.0 6.7 6.8 7.0 7.1 7.5 7.8 7.6 7.5 7.2 7.0 7.2 6.9 7.1 7.4 7.3 7.5
7.1 7.1 7.1 7.4 7.1 7.1 7.2 7.5 7.6 7.3 7.6 7.5 7.7 7.4 7.3 7.3 7.4 7.4 7.8 7.5 7.4 7.2 7.4 7.4 7.3 7.5 7.5 7.8 8.0 7.9 8.0 7.7 7.7 7.6 7.4 7.1 6.9 6.8 6.6 6.3 6.9 7.1 7.4 7.1 7.1 7.1 7.0 7.0 6.9 6.9 6.7 7.4 7.4 7.3
7.0 7.2 7.3 7.5 7.2 7.0 7.2 7.4 7.2 7.5 7.2 7.8 7.6 7.5 7.4 7.5 7.6 7.5 7.5 7.5 7.5 7.6 7.5 7.6 7.5 7.6 7.5 7.7 7.6 7.6 7.5 7.5 7.7 7.5 7.1 7.0 7.0 6.9 6.2 6.5 7.4 7.9 7.9 7.0 6.9 6.8 6.6 6.8 6.6 6.8 6.7 7.5 7.3 7.2
7.2 7.1 7.5 7.5 7.2 7.0 7.1 7.4 7.5 7.5 7.5 7.4 7.3 7.1 7.1 7.1 7.1 6.9 6.9 7.4 7.8 7.8 7.8 7.9 7.9 7.6 7.8 7.5 7.4 7.7 7.7 7.6 7.5 7.2 7.2 6.9 6.9 6.6 6.8 7.2 7.7 7.5 6.9 6.6 6.6 6.6 6.7 6.8 6.9 7.1 7.2 7.3 7.3 7.2
7.1 7.1 7.5 7.5 7.2 7.1 7.0 7.0 7.0 7.1 6.9 6.9 7.0 7.0 6.9 6.6 6.5 6.8 7.0 7.5 7.8 7.9 8.1 8.3 7.9 7.7 7.9 7.6 7.4 7.7 7.7 7.5 7.0 7.1 7.2 7.0 6.9 7.3 7.9 7.7 6.9 6.8 6.6 6.6 6.6 6.7 6.8 6.9 7.2 7.4 7.3 7.2 7.2 7.1
6.9 6.9 7.2 7.5 7.4 7.2 7.1 6.8 6.7 7.1 7.1 7.0 7.3 7.1 6.9 7.0 7.1 7.4 7.6 7.7 7.9 8.0 8.2 8.3 8.2 7.9 7.7 7.6 7.7 7.6 7.8 7.7 7.2 7.3 7.4 7.1 7.2 8.2 7.6 7.4 7.4 7.4 7.3 7.1 6.9 6.9 7.1 7.0 7.2 7.3 7.2 7.1 7.0 6.9
7.0 7.0 6.9 7.0 7.3 7.2 7.1 7.2 7.1 7.1 7.5 7.7 7.7 7.4 7.2 7.3 7.4 7.5 7.5 7.6 7.7 7.7 8.2 8.6 8.8 8.3 8.0 7.7 7.6 7.5 7.9 7.8 7.5 7.8 7.6 7.3 8.1 7.9 7.7 7.6 7.6 7.5 7.6 7.6 7.5 7.3 7.2 7.0 7.1 7.3 7.1 6.9 6.8 6.7
7.1 7.1 7.1 7.1 7.2 7.3 7.3 7.2 7.4 7.5 7.5 7.4 7.4 7.4 7.4 7.3 7.3 7.3 7.0 7.3 7.6 8.3 8.6 8.7 8.7 8.2 8.0 7.8 7.6 7.6 8.0 7.7 7.8 7.7 7.4 7.7 8.1 8.0 7.9 8.1 8.1 8.1 8.0 7.9 7.8 7.5 7.3 7.3 7.4 7.1 7.0 6.8 6.8 6.7
7.2 7.2 7.1 7.2 7.3 7.3 7.4 7.7 7.6 7.6 7.6 7.5 7.4 7.3 7.4 7.1 7.0 7.2 7.5 7.6 7.6 7.6 7.7 7.9 7.7 7.7 7.6 7.6 7.4 7.7 7.9 7.9 7.7 7.5 7.8 8.1 8.1 8.1 8.1 8.1 8.2 8.3 8.3 8.1 7.8 7.5 7.3 7.0 6.9 6.9 6.8 6.8 6.6 6.7
7.1 7.2 7.3 7.5 7.4 7.4 7.5 7.5 7.4 7.4 7.4 7.3 7.2 7.1 7.2 7.4 7.5 7.8 7.8 8.0 7.9 8.1 7.8 7.8 7.7 8.0 7.8 7.7 7.6 7.7 7.6 7.6 7.7 7.8 8.0 7.9 7.9 7.9 8.0 8.1 8.1 7.8 7.7 7.4 7.3 7.2 7.1 7.0 6.7 6.6 6.6 6.6 6.5 6.6
6.7 6.8 7.1 7.2 7.1 7.1 7.1 7.1 7.1 7.2 7.1 7.2 7.3 7.5 8.0 7.9 8.0 7.8 7.8 8.0 7.9 7.8 7.8 7.7 7.8 7.7 7.7 7.7 7.5 7.5 7.8 7.9 8.1 7.9 7.9 8.0 7.8 8.0 8.0 7.8 7.7 7.5 7.4 7.0 6.9 6.9 6.8 6.7 6.6 6.6 6.5 6.5 6.6 6.6
6.5 6.8 6.6 6.7 6.8 6.8 6.9 7.0 7.1 7.2 7.5 7.6 7.7 7.7 7.9 7.8 7.9 7.9 7.8 7.9 7.8 7.6 7.6 7.8 7.9 7.9 7.8 7.7 7.7 7.5 7.6 7.9 7.7 7.7 7.8 7.8 7.8 8.0 7.5 7.4 7.3 7.3 7.2 7.1 7.0 6.9 6.8 6.6 6.5 6.5 6.5 6.6 6.6 6.6
6.7 6.7 6.6 6.5 6.5 6.5 6.8 7.0 7.0 7.2 7.4 7.7 7.7 7.6 7.5 7.4 7.4 7.7 7.7 7.5 7.5 7.5 7.7 7.8 8.0 7.8 7.8 7.8 7.9 7.7 7.5 7.6 7.5 7.4 7.4 7.4 7.3 7.1 7.1 6.9 7.0 7.0 7.0 7.0 7.0 6.8 6.5 6.5 6.7 6.7 6.7 6.7 6.7 6.6
6.6 6.8 6.8 6.8 6.7 6.8 6.5 6.6 6.8 6.8 6.9 7.2 7.3 7.1 7.0 6.9 6.9 6.9 7.0 7.4 7.5 7.5 7.6 7.5 7.0 7.2 7.6 7.7 7.5 7.4 7.4 7.3 7.2 7.1 7.0 6.9 6.9 6.9 7.0 6.9 6.8 6.8 6.9 7.0 6.8 6.8 6.7 6.8 6.8 6.8 6.7 6.7 6.6 6.6
6.5 6.5 6.7 6.7 6.7 6.6 6.5 6.7 6.7 6.7 6.8 7.0 7.1 7.2 7.1 7.1 7.3 7.2 7.1 7.1 7.0 6.9 6.6 6.7 7.3 7.5 7.3 7.6 7.6 7.3 7.3 7.2 7.1 7.0 6.9 7.2 7.0 7.1 7.0 6.7 6.7 6.8 6.7 6.6 6.7 6.7 6.7 6.7 6.7 6.7 6.7 6.7 6.5 6.5
6.1 6.2 6.1 6.1 6.2 6.3 6.4 6.5 6.7 6.8 6.9 6.9 7.1 7.1 7.3 7.2 7.2 7.3 7.4 7.1 6.5 6.5 6.8 7.0 7.3 7.5 7.6 7.3 7.3 6.9 7.1 7.1 6.9 6.8 7.2 7.5 7.5 7.1 6.7 6.8 6.7 6.6 6.5 6.5 6.5 6.5 6.6 6.7 6.6 6.6 6.6 6.7 6.5 6.5
6.2 6.0 5.9 5.9 5.9 6.0 6.2 6.4 6.3 6.5 6.4 6.5 6.6 6.7 6.8 7.0 7.1 7.1 7.1 6.9 6.9 7.1 7.2 7.3 7.5 7.5 7.3 7.0 7.1 7.0 7.1 7.0 7.2 7.2 7.2 7.1 7.1 7.0 6.9 6.9 6.7 6.5 6.4 6.3 6.4 6.4 6.6 6.6 6.6 6.6 6.7 6.7 6.6 6.6
5.9 5.9 5.8 5.7 5.7 5.7 6.1 6.2 6.2 6.3 6.4 6.4 6.8 6.8 6.9 6.9 6.9 6.9 6.8 6.7 6.7 7.0 7.0 6.9 7.2 7.4 7.2 7.1 7.0 7.0 7.1 7.2 7.2 7.2 7.2 7.0 6.9 6.8 6.7 6.7 6.6 6.4 6.3 6.2 6.3 6.4 6.6 6.6 6.6 6.7 6.7 6.8 6.8 6.7
5.8 5.8 5.5 5.8 5.9 6.1 6.3 6.5 6.4 6.3 6.2 6.2 6.5 6.9 7.0 6.9 6.9 6.8 6.7 7.0 7.2 7.1 7.1 7.1 7.1 7.2 7.1 7.1 7.1 7.2 7.2 7.2 7.2 7.2 7.2 7.1 6.9 6.7 6.6 6.6 6.5 6.5 6.5 6.4 6.5 6.7 6.7 6.8 6.8 6.8 6.9 6.9 6.8 6.9
5.8 5.7 5.8 6.2 6.3 6.2 6.5 6.4 6.3 6.2 6.2 6.3 6.2 6.6 7.0 7.3 7.1 7.0 7.2 7.5 7.4 7.3 7.3 7.4 7.4 7.3 7.2 7.2 7.2 7.2 7.1 7.2 7.2 7.2 7.1 7.1 7.0 6.8 6.7 6.7 6.8 6.8 6.8 6.8 6.9 6.9 7.0 7.0 7.0 7.0 7.0 7.0 7.0 7.0
5.8 6.1 6.0 6.2 6.3 6.2 6.2 6.0 6.0 6.1 6.1 6.1 6.2 6.5 6.8 6.8 6.8 7.0 7.2 7.9 7.8 7.6 7.6 7.5 7.4 7.2 7.1 7.2 7.2 7.2 7.2 7.2 7.2 7.2 7.1 7.0 7.0 7.0 7.1 7.1 7.0 7.1 7.0 7.0 7.1 7.1 7.1 7.1 7.1 7.1 7.2 7.2 7.1 7.2
5.8 6.0 6.4 6.5 6.3 6.2 6.1 6.2 6.1 6.0 5.9 6.1 6.3 6.4 6.8 6.7 6.5 7.1 7.6 7.8 7.8 7.7 7.6 7.4 7.4 7.3 7.2 7.3 7.2 7.1 7.1 7.1 7.1 7.1 7.0 7.0 7.0 7.0 7.0 7.1 7.1 7.0 7.1 7.1 7.1 7.2 7.2 7.2 7.3 7.3 7.3 7.2 7.2 7.2
6.0 6.2 6.4 6.5 6.4 6.3 6.1 6.0 5.9 5.9 6.0 6.2 6.3 6.5 6.7 6.8 7.1 7.3 7.2 7.2 7.2 7.3 7.3 7.3 7.2 7.2 7.1 7.0 6.8 6.9 6.9 6.9 6.9 6.9 7.0 7.0 7.0 7.0 7.1 7.1 7.1 7.1 7.1 7.2 7.2 7.2 7.3 7.3 7.4 7.4 7.4 7.3 7.2 7.1
6.3 6.4 6.6 6.7 6.5 6.2 6.2 6.2 6.3 6.4 6.5 6.4 6.5 6.7 6.9 7.1 7.0 7.0 7.0 7.0 7.1 7.2 7.2 7.2 7.1 6.9 6.9 6.8 6.7 6.6 6.6 6.7 6.7 6.8 6.9 6.9 6.9 6.9 7.0 7.1 7.1 7.1 7.1 7.2 7.3 7.3 7.4 7.4 7.4 7.3 7.2 7.1 7.0 6.9
6.2 6.2 6.2 6.3 6.3 6.2 6.6 6.6 6.7 6.9 6.8 6.8 6.9 6.9 7.0 7.1 7.0 6.9 6.9 7.0 7.0 7.0 7.0 7.0 6.9 6.8 6.7 6.6 6.6 6.5 6.5 6.6 6.6 6.7 6.8 6.9 6.9 6.8 7.0 7.0 7.0 7.1 7.2 7.3 7.3 7.3 7.4 7.3 7.3 7.2 7.0 6.8 6.7 6.6
5.8 6.0 6.2 6.4 6.7 6.9 6.8 6.9 7.0 7.0 7.1 7.1 7.1 7.1 7.0 7.1 7.1 7.1 7.1 7.1 7.0 7.0 6.9 6.9 6.8 6.7 6.7 6.6 6.6 6.6 6.6 6.6 6.6 6.7 6.8 6.8 6.8 6.9 6.8 6.9 6.9 6.9 7.0 7.1 7.1 7.2 7.2 7.1 7.0 6.9 6.8 6.6 6.4 6.2
5.5 5.8 6.0 6.2 6.5 6.8 6.7 6.9 7.0 7.1 7.2 7.3 7.2 7.3 7.2 7.2 7.3 7.5 7.3 7.2 7.1 7.1 7.0 6.9 6.9 6.9 6.9 6.9 6.9 7.0 7.0 7.0 6.9 6.9 6.9 6.9 6.8 6.8 6.8 6.8 6.8 6.8 6.9 6.9 6.9 6.9 6.9 6.8 6.7 6.5 6.4 6.2 6.0 5.9
4.9 5.1 5.4 5.7 6.0 6.2 6.4 6.4 6.6 6.9 7.2 7.3 7.3 7.4 7.4 7.4 7.5 7.8 7.5 7.3 7.3 7.3 7.3 7.3 7.4 7.3 7.3 7.4 7.3 7.2 7.1 7.0 6.9 6.9 6.9 6.8 6.8 6.8 6.8 6.8 6.8 6.8 6.8 6.8 6.8 6.7 6.6 6.4 6.3 6.1 6.0 5.9 5.7 5.6
Wind_Speed
25 25 23 22 23 23 24 24 26 25 23 22 26 28 27 31 32 20 4 5 3 2 5 2 4 8 6 6 6 4 8 5 4 5 6 6 7 10 13 13 11 11 8 9 12 13 15 13 1 5 3 4 6 6
24 23 20 19 21 22 24 24 24 23 22 26 29 27 28 32 33 25 5 5 4 4 2 5 6 4 13 12 5 3 5 7 6 5 5 5 7 5 11 9 13 12 8 9 9 5 5 7 6 8 11 8 5 6
22 21 19 19 20 21 23 21 22 26 27 28 27 27 29 31 36 16 6 9 4 3 2 3 4 2 3 4 3 5 3 3 4 2 2 2 5 5 8 9 11 12 10 8 5 3 6 6 4 8 7 6 6 3
20 18 18 18 20 19 18 21 27 30 33 31 25 29 24 39 36 18 8 10 6 5 3 3 9 7 2 2 3 1 2 3 2 2 3 3 4 6 7 7 4 8 9 8 8 8 10 11 8 5 6 9 8 3
18 16 16 16 15 11 18 25 27 26 26 27 27 25 31 32 31 18 9 7 7 4 3 5 4 7 5 4 5 3 4 2 2 3 3 4 7 7 7 8 8 9 9 6 5 7 8 10 7 5 10 7 9 6
13 13 11 10 2 15 25 27 30 25 26 30 29 28 32 31 27 9 3 4 4 3 4 4 2 11 9 8 8 7 4 4 2 2 3 5 9 4 4 6 11 13 15 16 13 12 13 8 11 15 8 8 7 7
12 9 7 6 9 16 6 13 28 32 31 31 34 33 27 21 7 3 3 10 10 3 3 5 5 8 12 8 7 6 7 4 4 3 4 7 7 4 5 13 14 16 17 15 15 15 16 16 10 14 7 5 5 6
11 8 7 12 7 7 16 23 32 35 35 38 36 31 27 27 15 7 7 12 3 4 2 3 4 6 12 5 4 6 5 5 4 4 4 6 6 6 7 11 16 18 19 19 17 17 17 16 17 14 8 7 8 8
11 9 15 15 7 15 21 28 31 36 37 36 30 23 5 4 4 3 9 13 6 3 3 2 6 5 9 6 5 3 2 3 3 5 8 6 6 7 8 14 17 17 17 17 17 16 17 16 16 8 10 9 9 7
13 12 16 21 14 17 21 27 32 35 34 28 6 5 3 3 23 11 2 3 5 3 1 2 5 4 8 7 6 4 3 3 4 6 5 7 12 18 21 20 17 16 17 16 17 14 13 14 6 6 8 8 8 6
17 15 16 20 23 20 20 27 27 28 18 4 4 3 8 16 1 3 4 3 2 1 3 5 8 6 7 8 5 5 4 2 3 5 5 4 6 12 17 19 20 20 20 20 18 18 14 14 8 6 7 8 7 9
21 20 18 19 20 21 22 24 21 6 4 7 10 7 3 1 3 4 4 4 4 5 6 9 9 9 5 4 4 4 3 3 6 3 2 3 7 14 7 6 9 10 9 10 12 16 14 8 7 8 10 10 8 9
20 22 21 20 21 22 22 20 20 23 16 4 4 3 4 3 4 6 8 5 5 4 4 7 9 7 4 4 2 3 3 5 3 3 4 4 7 6 8 7 8 9 11 11 10 4 11 8 8 11 10 9 11 11
22 23 23 22 22 23 23 16 18 7 2 3 2 4 4 5 5 5 7 8 5 5 7 9 9 4 3 6 3 5 4 3 4 4 8 4 5 5 5 4 5 6 7 7 10 12 13 13 11 11 12 11 12 12
22 23 22 21 22 21 20 10 8 2 3 1 3 3 6 4 4 5 5 5 5 5 7 4 2 5 4 3 4 3 4 5 5 6 6 4 5 4 4 4 5 4 4 7 8 10 11 11 11 11 9 9 10 11
23 19 10 21 20 20 14 7 2 2 4 2 3 2 3 6 4 2 3 2 2 4 4 3 2 2 4 3 6 6 5 6 4 3 4 3 3 2 1 3 3 3 5 6 7 9 9 9 10 10 9 9 9 10
16 5 22 20 20 20 15 5 2 1 3 3 0 2 3 3 5 2 5 4 6 5 5 4 5 6 2 4 8 5 6 6 5 3 2 3 4 1 3 4 3 5 6 7 8 8 9 9 10 9 10 8 8 8
9 17 24 25 22 12 5 2 2 3 4 4 3 2 1 4 6 5 5 5 6 7 8 7 3 8 4 3 3 1 3 2 1 2 3 2 3 3 4 6 6 8 8 7 8 8 9 9 9 7 11 11 10 10
14 17 28 25 13 5 4 3 3 3 3 3 5 3 4 4 7 7 6 7 8 6 4 3 6 6 6 4 4 2 1 1 1 1 1 0 2 3 5 6 7 8 9 10 10 7 7 8 7 7 7 8 7 7
25 23 25 19 16 1 2 2 1 3 3 1 2 3 3 3 2 3 5 6 7 7 6 6 8 5 2 2 1 2 1 1 1 2 3 3 2 4 6 7 6 8 8 8 6 6 6 6 5 6 6 7 7 8
15 11 10 5 3 1 2 2 4 3 3 3 3 2 2 2 3 3 5 3 5 4 7 5 3 3 4 3 2 1 0 1 2 0 2 3 4 3 4 5 8 6 6 6 6 5 6 5 6 5 5 5 6 7
6 16 4 2 2 3 3 4 3 3 2 3 2 3 3 3 3 3 2 4 3 4 1 1 2 3 3 2 2 1 3 1 1 1 2 5 4 3 3 4 5 5 5 5 5 5 5 5 5 6 5 6 7 6
10 3 1 1 3 3 3 1 3 2 3 3 1 3 3 2 2 5 3 3 2 2 3 3 4 4 5 5 3 3 3 3 2 2 2 1 3 3 4 4 3 5 5 2 4 5 5 8 7 6 7 7 7 8
6 2 2 4 6 3 1 2 2 3 3 3 3 2 2 2 4 3 3 3 3 5 5 7 6 4 4 6 5 4 3 2 3 3 1 2 3 2 3 4 3 3 4 5 4 5 6 6 8 7 7 9 9 8
2 4 3 5 4 3 3 3 3 3 4 4 3 3 2 3 3 3 3 3 5 5 6 6 6 5 5 4 3 4 1 2 1 4 1 1 4 4 4 4 4 4 4 5 6 6 6 6 7 7 8 9 10 10
4 4 5 2 1 3 3 3 3 3 2 2 4 1 1 3 3 4 0 2 2 4 3 4 4 4 3 4 4 3 2 1 0 3 2 1 3 4 5 6 5 3 3 3 6 7 8 7 7 9 9 11 12 11
4 4 4 2 3 4 4 3 5 4 3 3 2 2 2 3 4 2 2 3 2 2 2 2 1 1 1 4 5 4 4 4 4 3 4 3 4 4 2 2 4 4 5 5 5 7 8 8 8 8 8 8 9 9
3 1 4 2 3 3 3 3 3 3 3 1 2 3 3 2 3 2 3 1 2 2 2 2 3 3 2 5 6 5 4 4 5 5 4 4 3 2 3 3 4 7 5 4 5 6 7 7 8 8 8 8 7 8
3 0 2 3 3 4 4 3 3 0 2 2 2 2 2 3 2 2 1 1 1 2 3 3 2 2 4 4 3 3 4 5 7 6 7 5 4 3 3 4 4 4 4 5 5 6 8 8 7 8 9 7 7 8
4 2 3 3 3 4 2 1 3 2 2 3 4 6 6 4 2 2 3 3 4 4 2 1 4 4 5 5 5 4 3 3 2 1 3 4 4 7 5 5 5 5 5 6 7 9 12 10 11 9 9 7 7 8
1 3 4 4 3 2 0 1 4 6 5 4 4 5 7 3 2 5 6 5 3 3 4 4 4 4 5 5 6 6 5 3 2 3 1 5 5 6 6 5 5 5 6 7 7 7 8 8 8 9 10 10 10 9
3 4 3 3 2 3 1 3 2 3 4 5 6 5 3 3 4 5 4 6 6 6 7 6 5 5 3 3 4 3 5 6 6 5 5 4 5 6 6 5 5 6 7 7 7 8 9 10 8 9 9 12 11 10
3 4 4 4 3 3 3 2 3 3 4 4 5 5 5 4 5 1 2 5 4 4 5 4 3 6 7 5 5 4 5 5 7 5 4 7 11 9 6 6 6 7 9 7 8 8 11 12 10 11 11 11 10 11
Wind_Direction
241 238 242 247 248 251 249 250 244 246 247 257 259 257 247 220 196 196 193 201 217 224 40 351 158 137 142 177 163 163 163 202 184 212 211 219 239 238 244 246 211 188 199 208 228 247 258 253 40 262 350 191 284 286
231 237 238 244 250 251 252 252 250 241 256 264 266 233 229 208 193 175 160 142 72 70 26 318 340 329 203 191 140 206 184 182 179 198 225 233 252 221 243 247 230 258 239 207 202 215 38 7 26 351 310 309 340 315
230 239 243 248 254 251 257 246 243 252 252 254 248 240 202 189 195 164 137 127 95 98 43 342 193 99 49 74 56 168 242 277 225 212 309 286 263 259 241 248 253 250 266 251 276 276 280 229 242 276 323 340 349 354
230 237 244 251 258 257 247 261 265 257 256 241 239 200 197 188 159 153 140 161 162 134 133 201 287 194 182 133 194 186 39 25 345 282 248 258 257 272 282 283 282 280 345 284 269 283 273 280 306 10 337 328 309 224
226 232 243 255 261 256 279 279 272 251 214 212 195 168 162 142 147 134 132 179 189 169 125 125 208 203 187 207 227 204 192 179 232 239 235 235 250 269 267 272 269 272 269 254 252 256 264 268 316 303 293 301 295 267
213 224 242 255 307 326 295 271 250 205 178 152 148 148 133 142 128 109 119 292 177 180 116 134 205 183 197 192 206 194 213 254 195 259 253 260 271 254 246 254 250 253 261 271 278 283 280 268 236 239 240 275 249 244
191 205 217 128 25 311 313 139 127 137 138 136 125 127 113 86 76 88 154 141 172 175 109 123 144 177 188 201 225 227 245 247 237 224 243 251 255 261 262 259 267 276 276 277 275 276 267 269 258 249 237 214 159 215
178 174 147 100 12 35 69 86 117 111 111 112 114 121 129 123 102 66 68 92 221 94 138 145 122 152 179 185 201 220 217 222 233 238 250 254 253 243 247 249 250 252 255 262 267 275 281 281 285 287 147 171 176 205
162 142 128 118 63 102 90 90 99 110 113 117 123 126 104 44 65 90 69 54 43 36 118 156 157 169 175 186 191 177 175 240 241 233 232 245 235 231 240 243 246 257 261 261 257 263 268 253 249 213 163 182 185 193
151 133 119 128 107 103 114 113 115 118 124 137 109 66 69 81 126 157 50 46 23 6 313 225 221 153 185 187 183 151 176 236 245 226 227 237 249 256 254 259 260 256 258 256 252 260 271 278 203 193 188 172 175 161
146 138 123 132 134 124 122 118 124 132 139 40 57 56 119 167 76 55 61 56 91 334 234 229 225 171 201 192 185 194 174 232 255 226 221 233 243 243 245 241 241 243 246 251 257 263 246 262 187 172 151 139 142 142
146 142 136 132 134 136 131 130 143 114 64 88 106 111 146 148 77 104 137 162 203 213 197 209 214 220 172 164 213 194 182 235 247 299 250 240 241 258 253 14 8 4 344 312 262 233 238 162 168 149 141 146 144 133
141 140 138 135 138 136 138 148 102 123 128 122 90 101 147 159 160 184 175 194 194 205 218 206 213 196 143 170 191 177 154 244 285 238 231 233 257 358 28 7 355 7 345 315 287 80 102 100 97 127 118 108 118 121
137 139 140 140 142 146 153 133 142 181 69 80 110 118 206 171 214 202 223 217 213 213 223 221 206 175 168 174 189 189 191 240 248 239 253 256 55 30 14 6 17 25 8 46 63 74 85 92 90 93 109 129 128 131
141 141 142 145 148 154 161 151 181 256 24 169 179 193 203 203 218 206 251 261 243 213 209 163 109 214 164 146 208 207 207 228 230 253 254 76 64 16 359 8 85 84 67 74 80 89 96 99 103 104 112 119 122 130
136 130 146 152 153 154 142 123 194 336 319 268 239 252 268 203 223 230 254 212 297 225 161 163 141 209 209 195 198 203 231 230 248 334 51 75 81 355 47 80 88 104 104 94 93 100 102 106 112 113 112 118 130 139
161 136 144 148 140 143 157 175 159 333 285 261 295 357 314 287 241 221 200 208 192 218 188 193 183 211 221 224 205 205 233 259 351 63 27 21 329 20 115 109 123 136 115 111 112 115 110 109 114 116 119 124 131 135
118 130 137 141 144 149 180 233 232 252 248 240 246 168 10 304 286 227 221 237 213 216 226 244 263 206 222 256 243 291 42 89 41 342 317 10 300 147 152 149 150 145 134 124 117 121 131 141 142 138 140 144 139 141
135 140 143 156 160 142 162 220 200 269 260 275 272 196 214 231 236 239 227 228 226 231 215 239 236 247 253 266 322 88 72 88 4 114 119 159 238 178 136 139 149 145 140 140 146 146 153 161 135 144 145 149 144 154
126 143 153 172 191 223 221 221 222 260 280 241 218 238 223 225 199 204 235 237 222 225 227 222 232 245 323 77 65 78 49 359 266 255 228 157 168 156 152 162 155 149 150 153 134 137 142 119 136 143 156 158 152 153
127 153 164 196 216 226 297 294 228 251 313 265 285 257 246 178 203 204 212 212 221 223 226 225 240 98 70 70 70 63 33 270 258 242 321 160 169 181 176 174 145 161 148 145 153 149 146 149 144 138 132 128 137 140
112 163 169 188 308 281 259 197 272 310 265 261 235 207 238 204 186 184 160 208 218 218 246 239 175 140 153 179 150 138 103 189 144 146 124 118 162 163 171 159 170 159 155 150 158 156 145 137 129 134 141 132 133 135
93 44 75 193 267 259 263 231 261 218 267 301 265 242 222 196 123 148 224 224 214 201 190 210 130 125 111 119 133 152 184 212 162 121 146 191 148 154 155 159 170 152 142 125 129 141 139 135 143 149 136 138 134 132
41 65 216 225 208 251 176 239 218 268 266 257 265 255 218 166 165 233 249 198 157 161 161 153 146 138 168 184 192 167 186 190 120 118 116 143 145 121 115 111 93 81 128 123 128 131 137 151 151 146 152 143 144 149
174 195 266 243 234 237 242 241 224 244 260 220 254 243 201 187 220 230 241 167 161 186 186 177 188 193 201 179 136 116 154 256 171 151 154 247 125 125 129 127 126 127 130 149 155 155 163 154 154 160 154 149 154 158
252 171 206 268 252 219 252 267 224 253 283 253 239 331 284 237 228 237 116 68 136 169 145 157 171 173 184 173 160 156 161 114 127 136 122 157 184 184 168 165 161 163 177 176 157 159 152 166 159 156 154 156 164 159
247 226 208 228 290 297 284 262 279 274 253 253 286 233 230 243 236 110 108 43 53 42 86 73 73 171 164 121 97 93 81 62 51 102 106 80 59 36 60 167 187 145 144 146 153 156 163 161 157 164 153 156 165 156
243 262 244 173 244 235 277 278 251 247 254 293 265 243 257 300 5 40 44 54 52 71 78 70 59 41 58 121 118 122 111 108 99 92 90 83 66 67 80 75 91 118 121 130 142 151 155 150 158 157 152 156 153 145
222 167 289 254 263 238 235 235 260 355 45 288 273 281 311 24 24 324 134 66 332 242 184 166 141 104 96 97 113 153 154 173 173 185 204 182 166 158 149 142 127 112 120 120 120 137 143 145 152 149 144 141 130 129
185 174 257 203 220 236 212 207 290 350 268 267 300 289 279 240 192 181 240 220 225 223 201 152 148 184 176 174 168 169 187 208 255 274 227 215 153 135 153 153 139 134 132 131 118 109 106 106 106 110 117 125 132 131
241 218 242 238 253 202 201 301 269 252 247 252 241 259 274 310 266 208 214 216 216 188 185 192 195 212 198 194 179 176 181 185 168 142 102 109 128 139 152 146 137 137 130 131 146 143 134 136 138 140 146 146 142 146
219 222 248 241 242 131 255 246 248 246 230 217 237 215 220 246 251 188 193 192 198 208 212 208 194 187 156 105 104 88 48 136 155 167 171 144 136 133 131 127 130 133 140 152 149 146 156 147 149 150 146 145 153 144
260 241 247 263 237 223 148 266 256 272 241 253 255 247 229 258 269 116 152 210 218 214 210 174 102 131 132 140 137 113 91 89 109 122 130 141 136 139 142 149 151 152 152 147 150 156 148 150 145 143 144 145 136 132